STARLINK-1726, 46362

Orbit data source: Space-Track

STARLINK-1726, 46362 is a payload satellite owned by SpaceX/Seattle (US) in LEO that was launched on Thu, 03 Sep 2020 UTC via an FALCON 9 launch vehicle from the Air Force Eastern Test Range (AFETR). Payload-class satellites include a variety of spacecraft equipped with specific instruments for various scientific and technological missions. These include communications satellites like Starlink; space stations such as the ISS; scientific satellites like the Hubble; Earth observation satellites from companies like Planet Labs, Umbra, and HawkEye 360; GPS; miniature CubeSats for education and research; and military/defense satellites.

Loading next visibility...
Identifier
46362, 2020-062AP
Orbit
LEO
Country
Flag of USUS
Related business
Manufacturer
SpaceX/Seattle
Mission
Partially operational Commercial Communications
Bus & Motor
STARLINK, Unknown motor
Mass
260 kg wet, ~248 kg dry
Launch date (UTC)
2020-09-03 (5 years ago)
Launch vehicle
FALCON 9
Launch site
Air Force Eastern Test Range (AFETR)
Object type
Payload
Rocket body
Debris
Shape & HBR
Box + 1 Pan, 4.4 m
Radar Cross Section
13.562 m², Large (>1 m²)

Expand to show TLE details & history
Last TLE update: 1 day ago

TLE from 1 day ago
0 STARLINK-1726
1 46362U 20062AP  25257.68825192  .00073695  00000-0  24224-2 0  9999
2 46362  53.0589  31.1931 0006163 230.5404 129.5051 15.30887086278562
Epoch: 2025-09-14T16:31Z
TLE epoch observation values (Epoch: 2025-09-14T16:31:04.965Z)
Latitude
-0.00004°
Longitude
149.51871°
Altitude
476.741 km
Speed
7.627 km/s
True Right ascension
02h 04m 46s
True Declination
0° 00' 00"
Sunlit
Object was in full shadow at epoch
Visualization orbit readout
Latitude
Unknown
Longitude
Unknown
Altitude
Unknown
Speed
Unknown
Apparent Right ascension
Unknown
Apparent Declination
Unknown
Sunlit
N/A
Visualization observer readout
Local Sidereal Time
11:41:11
Azimuth
Unknown
Elevation
Unknown
Doppler factor
Unknown
Orbital elements
Apogee altitude
477.66 km
Perigee altitude
469.215 km
Semi-major axis
6,851.574 km
Eccentricity
0.00062
Inclination
53.0589°
RAAN
31.1931°
Arg. of periapsis
230.5404°
True anomaly
129.55956°
Mean anomaly
129.5051°
Eccentric anomaly
129.53233°
Mean motion
3.82699 °/min
Orbital period
94.07 mins
BSTAR
0.0024224
Loading maneuver chart data...
Computing Atmospheric mass density...
Loading historical data...
Loading historical data...
Loading historical data...
Loading historical data...
Loading historical data...
Loading historical data...
Loading historical data...

Documentation

Showing up to 5 results
|